Flag for Congo Weather past 2 weeks in Pointe-Noire, Congo

Now
82 °F

Broken clouds.


Feels Like: 89 °F
Forecast: 78 / 88 °F
Wind: 8 mph from Southwest

Location: Pointe Airport-Noire

Current Time: Jan 31, 2015 at 5:32:21 PM

Latest Report: Jan 31, 2015 at 5:00 PM


Visibility: N/A

Pressure: 29.80 "Hg

Humidity: 79%

Dew point: 75 °F

Location of Pointe-NoireLocation

Historic Weather in Pointe-Noire — Graph

°F

Pointe-Noire temperature yesterday

Maximum temperature yesterday: 88 °F (at 11:00 AM)
Minimum temperature yesterday: 77 °F (at 7:00 AM)
Average temperature yesterday: 84 °F

Past Weeks' High & Low Weather Summary

 TemperatureHumidityPressure
High88 °F (Jan 20, 11:00 AM)100% (Jan 25, 10:00 PM)29.95 "Hg (Jan 25, 10:00 PM)
Low73 °F (Jan 27, 2:00 AM)62% (Jan 19, 1:00 PM)29.74 "Hg (Jan 25, 4:00 PM)
Average81 °F82%29.85 "Hg
* Reported Jan 16 4:00 PM — Jan 31 4:00 PM, Pointe-Noire, Weather by CustomWeather, © 2014

Note: Actual official high and low records may vary slightly from our data, if they occured in-between our weather recording intervals... More about our weather records

Advertising

Pointe-Noire weather history for previous 24 hours

 ConditionsComfort  
Time TempWeatherWind HumidityBarometerVisibility
4:00 PM
Jan 31
82 °FScattered clouds.8 mph79%29.80 "HgN/A
3:00 PM82 °FLight rain. Scattered clouds.3 mph79%29.83 "HgN/A
2:00 PM81 °FScattered clouds.3 mph84%29.83 "HgN/A
1:00 PM79 °FLight rain. Broken clouds.2 mph89%29.89 "Hg5 mi
12:00 PM86 °FLight rain. Scattered clouds.6 mph70%29.89 "HgN/A
11:00 AM84 °FScattered clouds.8 mph74%29.92 "HgN/A
10:00 AM79 °FBroken clouds.12 mph84%29.95 "HgN/A
9:00 AM79 °FBroken clouds.10 mph84%29.95 "HgN/A
8:00 AM77 °FBroken clouds.9 mph94%29.92 "HgN/A
7:00 AM75 °FThunderstorms. Broken clouds.8 mph100%29.89 "Hg5 mi
6:00 AM75 °FThunderstorms. Passing clouds.2 mph94%29.86 "Hg4 mi
5:00 AM75 °FThunderstorms. Mostly cloudy.6 mph89%29.86 "Hg4 mi
3:00 AM82 °FThunderstorms. Mostly cloudy.10 mph84%29.83 "Hg4 mi
2:00 AM84 °FThunderstorms. Partly cloudy.7 mph79%29.83 "Hg5 mi
1:00 AM84 °FThunderstorms. Partly cloudy.9 mph79%29.86 "Hg5 mi
12:00 AM82 °FThunderstorms. Partly cloudy.10 mph84%29.86 "Hg5 mi
11:00 PM
Jan 30
84 °FThunderstorms. Passing clouds.7 mph79%29.86 "HgN/A
10:00 PM84 °FPassing clouds.8 mph79%29.86 "HgN/A
9:00 PM84 °FPassing clouds.8 mph79%29.86 "HgN/A
8:00 PM84 °FPassing clouds.8 mph79%29.80 "HgN/A
7:00 PM84 °FPassing clouds.7 mph79%29.80 "HgN/A
6:00 PM86 °FScattered clouds.9 mph70%29.77 "HgN/A
5:00 PM88 °FPassing clouds.12 mph70%29.77 "HgN/A
Weather by CustomWeather, © 2014

See weather overviewHow to use our weather pages